When you browse on this site, cookies collect data to enhance your experience and personalize the content and advertising you see.
Visit our Privacy Policy to learn more. By continuing to use the site, you agree to this use of cookies and data.
  • In Czech Republic
  • List of Countries
  • For 7 days
  • Water Temperature
  • Satellite Maps
  • Weather Map
  • Weather Widgets
  • user-avatar
    Login

    Hourly Weather Pabna

    Today, 21 March, Thursday

    Time Temperature Precipitation Wind Pressure Humidity
    00:00 +28°C° 0 mm 2 mps 755 mmHg 26%
    01:00 +27°C° 0 mm 2 mps 755 mmHg 29%
    02:00 +26°C° 0 mm 2 mps 755 mmHg 33%
    03:00 +26°C° 0 mm 2 mps 755 mmHg 37%
    04:00 +25°C° 0 mm 2 mps 755 mmHg 44%
    05:00 +25°C° 0 mm 2 mps 755 mmHg 51%
    06:00 +24°C° 0 mm 2 mps 755 mmHg 57%
    07:00 +27°C° 0 mm 2 mps 756 mmHg 51%
    08:00 +29°C° 0 mm 3 mps 756 mmHg 45%
    09:00 +33°C° 0 mm 3 mps 757 mmHg 39%
    10:00 +35°C° 0 mm 3 mps 757 mmHg 31%
    11:00 +37°C° 0 mm 3 mps 756 mmHg 22%
    12:00 +38°C° 0 mm 3 mps 757 mmHg 16%
    13:00 +38°C° 0 mm 3 mps 756 mmHg 15%
    14:00 +40°C° 0 mm 4 mps 755 mmHg 14%
    15:00 +41°C° 0 mm 4 mps 754 mmHg 13%
    16:00 +40°C° 0 mm 4 mps 754 mmHg 15%
    17:00 +37°C° 0 mm 3 mps 754 mmHg 16%
    18:00 +36°C° 0 mm 3 mps 753 mmHg 18%
    19:00 +35°C° 0 mm 3 mps 754 mmHg 20%
    20:00 +34°C° 0 mm 3 mps 754 mmHg 21%
    21:00 +33°C° 0 mm 3 mps 754 mmHg 23%
    22:00 +31°C° 0 mm 3 mps 755 mmHg 26%
    23:00 +30°C° 0 mm 3 mps 755 mmHg 29%

    Tomorrow, 22 March, Friday

    Time Temperature Precipitation Wind Pressure Humidity
    00:00 +30°C° 0 mm 3 mps 755 mmHg 32%
    01:00 +29°C° 0 mm 3 mps 754 mmHg 40%
    02:00 +29°C° 0 mm 3 mps 754 mmHg 47%
    03:00 +29°C° 0 mm 4 mps 754 mmHg 55%
    04:00 +29°C° 0 mm 3 mps 754 mmHg 60%
    05:00 +28°C° 0 mm 3 mps 754 mmHg 64%
    06:00 +28°C° 0 mm 3 mps 754 mmHg 69%
    07:00 +29°C° 0 mm 3 mps 755 mmHg 64%
    08:00 +31°C° 0 mm 3 mps 755 mmHg 60%
    09:00 +33°C° 0 mm 4 mps 756 mmHg 55%
    10:00 +35°C° 0 mm 4 mps 756 mmHg 46%
    11:00 +37°C° 0 mm 3 mps 756 mmHg 37%
    12:00 +39°C° 0 mm 3 mps 755 mmHg 27%
    13:00 +40°C° 0.4 mm 4 mps 754 mmHg 27%
    14:00 +39°C° 0.4 mm 5 mps 753 mmHg 27%
    15:00 +39°C° 0.4 mm 6 mps 752 mmHg 27%
    16:00 +39°C° 0 mm 5 mps 752 mmHg 24%
    17:00 +37°C° 0 mm 5 mps 752 mmHg 21%
    18:00 +37°C° 0 mm 4 mps 751 mmHg 18%
    19:00 +35°C° 0 mm 4 mps 752 mmHg 20%
    20:00 +34°C° 0 mm 3 mps 752 mmHg 21%
    21:00 +33°C° 0 mm 3 mps 753 mmHg 22%
    22:00 +31°C° 0 mm 3 mps 753 mmHg 24%
    23:00 +30°C° 0 mm 3 mps 754 mmHg 27%

    Day after tomorrow, 23 March, Saturday

    Time Temperature Precipitation Wind Pressure Humidity
    00:00 +29°C° 0 mm 2 mps 754 mmHg 29%
    01:00 +29°C° 0 mm 2 mps 753 mmHg 30%
    02:00 +29°C° 0 mm 2 mps 753 mmHg 31%
    03:00 +28°C° 0 mm 2 mps 753 mmHg 32%
    04:00 +28°C° 0 mm 2 mps 753 mmHg 32%
    05:00 +27°C° 0 mm 2 mps 753 mmHg 32%
    06:00 +27°C° 0 mm 2 mps 754 mmHg 31%
    07:00 +29°C° 0 mm 2 mps 755 mmHg 27%
    08:00 +31°C° 0 mm 3 mps 755 mmHg 23%
    09:00 +35°C° 0 mm 3 mps 756 mmHg 19%
    10:00 +36°C° 0 mm 4 mps 756 mmHg 17%
    11:00 +39°C° 0 mm 5 mps 756 mmHg 15%
    12:00 +40°C° 0 mm 6 mps 755 mmHg 13%
    13:00 +40°C° 0 mm 6 mps 754 mmHg 12%
    14:00 +41°C° 0 mm 6 mps 753 mmHg 12%
    15:00 +41°C° 0 mm 7 mps 752 mmHg 11%
    16:00 +40°C° 0 mm 5 mps 752 mmHg 11%
    17:00 +37°C° 0 mm 4 mps 752 mmHg 12%
    18:00 +36°C° 0 mm 3 mps 752 mmHg 12%
    19:00 +35°C° 0 mm 3 mps 752 mmHg 12%
    20:00 +33°C° 0 mm 3 mps 753 mmHg 12%
    21:00 +31°C° 0 mm 2 mps 753 mmHg 12%
    22:00 +30°C° 0 mm 2 mps 753 mmHg 12%
    23:00 +29°C° 0 mm 2 mps 753 mmHg 12%

    24 March, Sunday

    Time Temperature Precipitation Wind Pressure Humidity
    00:00 +29°C° 0 mm 2 mps 753 mmHg 13%
    01:00 +28°C° 0 mm 2 mps 753 mmHg 13%
    02:00 +27°C° 0 mm 2 mps 753 mmHg 13%
    03:00 +27°C° 0 mm 2 mps 752 mmHg 14%
    04:00 +26°C° 0 mm 2 mps 753 mmHg 14%
    05:00 +25°C° 0 mm 2 mps 753 mmHg 15%
    06:00 +25°C° 0 mm 2 mps 753 mmHg 16%
    07:00 +27°C° 0 mm 2 mps 754 mmHg 15%
    08:00 +30°C° 0 mm 2 mps 755 mmHg 14%
    09:00 +32°C° 0 mm 2 mps 756 mmHg 13%
    10:00 +35°C° 0 mm 2 mps 756 mmHg 12%
    11:00 +36°C° 0 mm 3 mps 755 mmHg 11%
    12:00 +38°C° 0 mm 3 mps 755 mmHg 10%
    13:00 +39°C° 0 mm 3 mps 754 mmHg 9%
    14:00 +39°C° 0 mm 3 mps 753 mmHg 9%
    15:00 +41°C° 0 mm 4 mps 752 mmHg 9%
    16:00 +39°C° 0 mm 3 mps 752 mmHg 11%
    17:00 +37°C° 0 mm 2 mps 752 mmHg 12%
    18:00 +36°C° 0 mm 2 mps 752 mmHg 14%
    19:00 +35°C° 0 mm 2 mps 752 mmHg 16%
    20:00 +32°C° 0 mm 1 mps 753 mmHg 17%
    21:00 +31°C° 0 mm 1 mps 754 mmHg 18%
    22:00 +30°C° 0 mm 1 mps 754 mmHg 18%
    23:00 +30°C° 0 mm 1 mps 754 mmHg 19%

    25 March, Monday

    Time Temperature Precipitation Wind Pressure Humidity
    00:00 +29°C° 0 mm 1 mps 754 mmHg 19%
    01:00 +29°C° 0 mm 1 mps 753 mmHg 20%
    02:00 +28°C° 0 mm 1 mps 753 mmHg 21%
    03:00 +27°C° 0 mm 1 mps 753 mmHg 22%
    04:00 +27°C° 0 mm 2 mps 753 mmHg 23%
    05:00 +27°C° 0 mm 2 mps 754 mmHg 24%
    06:00 +26°C° 0 mm 2 mps 754 mmHg 24%
    07:00 +29°C° 0 mm 2 mps 755 mmHg 22%
    08:00 +31°C° 0 mm 2 mps 755 mmHg 20%
    09:00 +35°C° 0 mm 2 mps 756 mmHg 18%
    10:00 +37°C° 0 mm 3 mps 756 mmHg 16%
    11:00 +38°C° 0 mm 3 mps 755 mmHg 14%
    12:00 +41°C° 0 mm 4 mps 755 mmHg 13%
    13:00 +42°C° 0 mm 4 mps 754 mmHg 12%
    14:00 +42°C° 0 mm 4 mps 753 mmHg 12%
    15:00 +43°C° 0 mm 5 mps 752 mmHg 11%
    16:00 +41°C° 0 mm 4 mps 752 mmHg 12%
    17:00 +39°C° 0 mm 3 mps 752 mmHg 14%
    18:00 +38°C° 0 mm 2 mps 752 mmHg 15%
    19:00 +36°C° 0 mm 2 mps 753 mmHg 16%
    20:00 +35°C° 0 mm 2 mps 753 mmHg 16%
    21:00 +34°C° 0 mm 2 mps 754 mmHg 17%
    22:00 +32°C° 0 mm 2 mps 754 mmHg 18%
    23:00 +31°C° 0 mm 1 mps 754 mmHg 19%

    26 March, Tuesday

    Time Temperature Precipitation Wind Pressure Humidity
    00:00 +30°C° 0 mm 1 mps 754 mmHg 20%
    01:00 +30°C° 0 mm 1 mps 754 mmHg 22%
    02:00 +29°C° 0 mm 1 mps 753 mmHg 23%
    03:00 +26°C° 0 mm 0 mps 753 mmHg 24%
    04:00 +28°C° 0 mm 1 mps 753 mmHg 25%
    05:00 +28°C° 0 mm 1 mps 753 mmHg 26%
    06:00 +27°C° 0 mm 2 mps 754 mmHg 27%
    07:00 +30°C° 0 mm 2 mps 755 mmHg 24%
    08:00 +32°C° 0 mm 2 mps 755 mmHg 21%
    09:00 +36°C° 0 mm 2 mps 756 mmHg 18%
    10:00 +38°C° 0 mm 3 mps 756 mmHg 16%
    11:00 +40°C° 0 mm 3 mps 755 mmHg 14%
    12:00 +43°C° 0 mm 4 mps 755 mmHg 12%
    13:00 +43°C° 0 mm 4 mps 754 mmHg 11%
    14:00 +44°C° 0 mm 4 mps 753 mmHg 11%
    15:00 +45°C° 0 mm 5 mps 753 mmHg 11%
    16:00 +43°C° 0 mm 4 mps 753 mmHg 13%
    17:00 +40°C° 0 mm 3 mps 752 mmHg 14%
    18:00 +39°C° 0 mm 2 mps 752 mmHg 16%
    19:00 +37°C° 0.2 mm 3 mps 753 mmHg 19%
    20:00 +36°C° 0.2 mm 4 mps 754 mmHg 22%
    21:00 +34°C° 0.2 mm 5 mps 755 mmHg 26%
    22:00 +33°C° 0 mm 4 mps 755 mmHg 28%
    23:00 +33°C° 0 mm 3 mps 755 mmHg 31%
    Show more